Retour au catalogue

STARLINK-6101

ActifCommunicationsVLEO
NORAD 56115·PAYLOAD·🇺🇸 United States

Lancé Mar 29, 2023 depuis Cape Canaveral Space Force Station

Loading…

Prochains Passages (prochaines 24 heures)

TLE

FraisSource: CelesTrak SupGP

Époque: Sep 15, 2026, 02:07 UTC

1 56115C 23046Y   26258.08868056  .00010713  00000+0  38809-3 0  2587
2 56115  43.0030 168.7297 0001426 268.2980 147.3660 15.27567242    17

Suivez STARLINK-6101 en temps réel avec AllMySat

Download on the App Store